Tracking 19574 objects as of 16-Feb-2019
HD Live streaming from Space Station
objects crossing your sky now

COSMOS 192

Track COSMOS 192 now!
10-day predictions
COSMOS 192 is classified as:


NORAD ID: 3047
Int'l Code: 1967-116A
Perigee: 708.7 km
Apogee: 720.4 km
Inclination: 74.0 °
Period: 98.9 minutes
Semi major axis: 7085 km
RCS: 3.2027 m2 (large)
Launch date: November 23, 1967
Source: Commonwealth of Independent States (former USSR) (CIS)
Launch site: PLESETSK MISSILE AND SPACE COMPLEX (PKMTR)
aabbcc
Your satellite tracking list
Your tracking list is empty




NASA's NSSDC Master Catalog

Two Line Element Set (TLE):
1  3047U 67116A   19046.59873392  .00000031  00000-0  13742-4 0  9996
2  3047  74.0108  63.1438 0008219 176.9343 183.1872 14.55595160709180
Source of the keplerian elements: AFSPC